Caribou, ME

4:55 PM EDT on May 26, 2018 (GMT -0400)
Caribou Municipal

Weather History for KCAR - September, 2012

Change the Weather History Date:

Monday, September 3, 2012

  Actual Average Record
Temperature  
Mean Temperature 61 °F 60 °F  
Max Temperature 73 °F 70 °F 90 °F (1999)
Min Temperature 49 °F 49 °F 30 °F (1976)
Degree Days  
Heating Degree Days 4 6  
Month to date heating degree days 22 18  
Since 1 July heating degree days 58 172  
Cooling Degree Days 0 1  
Month to date cooling degree days 0 3  
Year to date cooling degree days 271 172  
Growing Degree Days 10 (Base 50)    
Moisture  
Dew Point 51 °F    
Average Humidity 71    
Maximum Humidity 100    
Minimum Humidity 41    
Precipitation  
Precipitation 0.00 in 0.10 in 1.83 in (1959)
Month to date precipitation 0.00 0.31  
Year to date precipitation 26.95 25.05  
Snow  
Snow 0.00 in 0.00 in 0.00 in (2002)
Month to date snowfall 0.0 0.0  
Since 1 July snowfall 0.0 0.0  
Since 1 September snowfall 0.0 0.0  
Snow Depth 0.00 in    
Sea Level Pressure  
Sea Level Pressure 30.16 in    
Wind  
Wind Speed 3 mph (South)    
Max Wind Speed 9 mph    
Max Gust Speed 13 mph    
Visibility 6 miles    
Events Fog    
T = Trace of Precipitation, MM = Missing Value Source: NWS Daily Summary

Daily Weather History Graph

Daily Weather History Graph

Search for Another Location

Airport or City:

Astronomy

Sep. 03, 2012 Rise Set
Actual Time 5:54 AM EDT 7:06 PM EDT
Civil Twilight 5:23 AM EDT 7:37 PM EDT
Nautical Twilight 4:45 AM EDT 8:15 PM EDT
Astronomical Twilight 4:05 AM EDT 8:55 PM EDT
Moon 8:06 PM EDT (9/3) 9:15 AM EDT (9/3)
Length of Visible Light 14h 14m
Length of Day
13h 11m
Waning Gibbous, 90% of the Moon is Illuminated
Sep 3
Waning Gibbous
Sep 8
Last Quarter
Sep 15
New
Sep 22
First Quarter
Sep 29
Full

Hourly Weather History & Observations

Time (EDT) Temp. Dew Point Humidity Pressure Visibility Wind Dir Wind Speed Gust Speed Precip Events Conditions
12:54 AM 52.0 °F 50.0 °F 93% 30.16 in 10.0 mi Calm Calm - N/A   Clear
1:07 AM 51.8 °F 50.0 °F 94% 30.14 in 1.8 mi Calm Calm - N/A   Scattered Clouds
1:10 AM 50.0 °F 48.2 °F 94% 30.14 in 1.2 mi Calm Calm - N/A   Mostly Cloudy
1:22 AM 51.8 °F 48.2 °F 88% 30.14 in 0.2 mi Calm Calm - N/A Fog Fog
1:54 AM 48.9 °F 48.0 °F 97% 30.17 in 0.2 mi Calm Calm - N/A Fog Fog
2:54 AM 50.0 °F 48.9 °F 96% 30.16 in 0.2 mi Calm Calm - N/A Fog Fog
3:54 AM 48.9 °F 48.0 °F 97% 30.17 in 0.2 mi Calm Calm - N/A Fog Fog
4:54 AM 50.0 °F 48.9 °F 96% 30.19 in 0.2 mi Calm Calm - N/A Fog Fog
5:54 AM 50.0 °F 50.0 °F 100% 30.21 in 0.2 mi Calm Calm - N/A Fog Fog
6:54 AM 51.1 °F 50.0 °F 96% 30.21 in 0.2 mi Calm Calm - N/A Fog Fog
7:54 AM 53.1 °F 52.0 °F 96% 30.20 in 0.8 mi Calm Calm - N/A   Mist
8:03 AM 53.6 °F 51.8 °F 94% 30.18 in 1.0 mi Calm Calm - N/A   Mist
8:25 AM 53.6 °F 53.6 °F 100% 30.18 in 2.0 mi South 4.6 mph - N/A   Overcast
8:34 AM 53.6 °F 53.6 °F 100% 30.19 in 6.0 mi SSW 3.5 mph - N/A   Overcast
8:54 AM 54.0 °F 53.1 °F 97% 30.21 in 6.0 mi SW 4.6 mph - N/A   Overcast
9:54 AM 55.0 °F 53.1 °F 93% 30.22 in 10.0 mi SSE 5.8 mph - N/A   Overcast
10:54 AM 57.0 °F 54.0 °F 89% 30.21 in 10.0 mi Calm Calm - N/A   Overcast
11:28 AM 57.2 °F 53.6 °F 88% 30.18 in 10.0 mi Variable 4.6 mph - N/A   Overcast
11:54 AM 60.1 °F 54.0 °F 80% 30.19 in 10.0 mi Calm Calm - N/A   Overcast
12:09 PM 62.6 °F 53.6 °F 72% 30.17 in 10.0 mi Calm Calm - N/A   Mostly Cloudy
12:17 PM 62.6 °F 55.4 °F 77% 30.17 in 10.0 mi SSE 5.8 mph - N/A   Scattered Clouds
12:54 PM 66.0 °F 55.0 °F 68% 30.18 in 10.0 mi SSE 6.9 mph - N/A   Clear
1:54 PM 69.1 °F 53.1 °F 57% 30.15 in 10.0 mi Variable 5.8 mph - N/A   Clear
2:54 PM 71.1 °F 50.0 °F 47% 30.13 in 10.0 mi Variable 3.5 mph - N/A   Clear
3:54 PM 72.0 °F 48.9 °F 44% 30.12 in 10.0 mi South 3.5 mph - N/A   Clear
4:54 PM 71.1 °F 48.0 °F 44% 30.11 in 10.0 mi South 3.5 mph - N/A   Clear
5:54 PM 71.1 °F 46.9 °F 42% 30.10 in 10.0 mi SSE 5.8 mph - N/A   Clear
6:54 PM 66.9 °F 50.0 °F 54% 30.10 in 10.0 mi SSE 4.6 mph - N/A   Clear
7:54 PM 63.0 °F 52.0 °F 67% 30.10 in 10.0 mi SE 3.5 mph - N/A   Clear
8:54 PM 62.1 °F 51.1 °F 67% 30.10 in 10.0 mi South 4.6 mph - N/A   Clear
9:54 PM 60.1 °F 51.1 °F 72% 30.10 in 10.0 mi South 4.6 mph - N/A   Clear
10:54 PM 59.0 °F 51.1 °F 75% 30.10 in 10.0 mi South 3.5 mph - N/A   Clear
11:54 PM 57.9 °F 52.0 °F 81% 30.09 in 10.0 mi South 3.5 mph - N/A   Clear